Tracking 27188 objects as of 1-Apr-2023
HD Live streaming from Space Station
objects crossing your sky now

STARLINK-5823

Track STARLINK-5823 now!
10-day predictions
STARLINK-5823 is classified as:


NORAD ID: 55786
Int'l Code: 2023-028AX
Perigee: 364.0 km
Apogee: 368.5 km
Inclination: 70.0 °
Period: 91.7 minutes
Semi major axis: 6737 km
RCS: Unknown
Launch date: March 3, 2023
Source: United States (US)
Launch site: AIR FORCE WESTERN TEST RANGE (AFWTR)
Your satellite tracking list
Your tracking list is empty




NASA's NSSDC Master Catalog

Two Line Element Set (TLE):
1 55786U 23028AX  23091.23160743  .00002442  00000-0  22066-4 0  9999
2 55786  70.0002  75.1303 0003311 262.8253  97.2566 15.69927887  5133
Source of the keplerian elements: AFSPC